Total_Precipitation_Accumulation
0.29 0.29 0.33 0.36 0.29 0.30 0.40 0.42 0.35 0.19 0.16 0.19 0.15 0.11 0.09 0.08 0.08 0.08 0.11 0.10 0.09 0.10 0.11 0.13 0.17 0.19 0.19 0.19 0.22 0.29 0.41 0.52 0.59 0.65 0.73 0.78 0.79 0.79 0.85 0.98 1.03 1.00 1.01 1.02
0.23 0.16 0.22 0.26 0.19 0.18 0.19 0.18 0.19 0.15 0.16 0.19 0.16 0.11 0.09 0.09 0.09 0.09 0.10 0.08 0.08 0.09 0.11 0.12 0.15 0.17 0.17 0.18 0.22 0.28 0.37 0.45 0.55 0.69 0.80 0.91 0.91 0.92 0.93 0.98 1.04 1.01 0.96 0.96
0.39 0.18 0.31 0.36 0.19 0.16 0.16 0.14 0.14 0.18 0.18 0.14 0.13 0.11 0.09 0.09 0.11 0.10 0.08 0.07 0.07 0.08 0.10 0.12 0.13 0.14 0.15 0.18 0.22 0.26 0.36 0.44 0.50 0.63 0.75 0.85 0.87 0.88 0.88 0.80 0.80 0.86 0.87 0.81
0.58 0.44 0.63 0.31 0.14 0.13 0.14 0.14 0.13 0.14 0.14 0.13 0.13 0.11 0.09 0.10 0.10 0.09 0.09 0.09 0.09 0.09 0.09 0.09 0.11 0.12 0.12 0.13 0.17 0.24 0.32 0.44 0.46 0.55 0.66 0.71 0.75 0.78 0.78 0.68 0.67 0.75 0.73 0.61
0.80 0.61 0.35 0.16 0.12 0.16 0.20 0.22 0.15 0.13 0.11 0.10 0.10 0.11 0.12 0.13 0.10 0.09 0.09 0.09 0.09 0.09 0.09 0.09 0.10 0.11 0.11 0.11 0.13 0.20 0.27 0.37 0.42 0.48 0.61 0.62 0.63 0.70 0.70 0.68 0.63 0.59 0.59 0.54
0.89 0.66 0.33 0.17 0.10 0.12 0.20 0.28 0.14 0.11 0.11 0.11 0.12 0.23 0.20 0.18 0.13 0.09 0.07 0.07 0.08 0.08 0.07 0.08 0.09 0.09 0.08 0.08 0.11 0.16 0.23 0.30 0.33 0.37 0.48 0.50 0.49 0.55 0.57 0.54 0.52 0.49 0.48 0.47
0.71 0.53 0.22 0.13 0.12 0.14 0.34 0.38 0.16 0.11 0.11 0.12 0.18 0.27 0.23 0.16 0.13 0.10 0.08 0.07 0.07 0.08 0.08 0.08 0.08 0.08 0.06 0.06 0.09 0.14 0.19 0.23 0.27 0.30 0.35 0.38 0.41 0.45 0.48 0.47 0.47 0.46 0.45 0.42
0.54 0.59 0.28 0.13 0.18 0.32 0.37 0.20 0.13 0.11 0.09 0.10 0.11 0.10 0.10 0.11 0.10 0.09 0.08 0.08 0.07 0.07 0.06 0.06 0.06 0.06 0.05 0.05 0.09 0.12 0.16 0.20 0.24 0.29 0.29 0.33 0.36 0.40 0.41 0.45 0.50 0.50 0.46 0.42
0.39 0.30 0.18 0.15 0.21 0.24 0.17 0.13 0.10 0.10 0.09 0.10 0.09 0.08 0.09 0.10 0.09 0.08 0.08 0.08 0.06 0.06 0.05 0.05 0.05 0.06 0.05 0.06 0.09 0.12 0.15 0.17 0.23 0.27 0.25 0.30 0.35 0.41 0.42 0.46 0.54 0.54 0.49 0.44
0.18 0.11 0.08 0.10 0.12 0.13 0.12 0.09 0.08 0.08 0.10 0.09 0.08 0.07 0.08 0.09 0.09 0.09 0.08 0.07 0.06 0.05 0.05 0.05 0.04 0.04 0.05 0.07 0.11 0.13 0.15 0.16 0.20 0.26 0.27 0.27 0.32 0.40 0.42 0.44 0.59 0.64 0.59 0.52
0.13 0.05 0.05 0.06 0.07 0.09 0.10 0.08 0.06 0.07 0.08 0.07 0.06 0.06 0.07 0.09 0.09 0.09 0.09 0.08 0.06 0.04 0.05 0.05 0.04 0.04 0.05 0.08 0.12 0.14 0.15 0.16 0.20 0.26 0.30 0.29 0.31 0.35 0.39 0.40 0.59 0.74 0.65 0.64
0.12 0.05 0.06 0.05 0.04 0.05 0.07 0.07 0.06 0.07 0.07 0.05 0.04 0.05 0.06 0.07 0.09 0.09 0.08 0.08 0.07 0.05 0.05 0.05 0.05 0.05 0.06 0.08 0.12 0.16 0.19 0.21 0.24 0.29 0.32 0.32 0.33 0.35 0.40 0.39 0.46 0.49 0.52 0.58
0.09 0.06 0.05 0.04 0.03 0.04 0.06 0.06 0.05 0.06 0.08 0.08 0.05 0.05 0.06 0.07 0.08 0.08 0.07 0.07 0.07 0.07 0.06 0.06 0.05 0.05 0.06 0.09 0.13 0.17 0.22 0.25 0.28 0.31 0.34 0.34 0.33 0.35 0.40 0.39 0.39 0.40 0.42 0.48
0.06 0.07 0.06 0.04 0.03 0.03 0.05 0.05 0.05 0.05 0.05 0.07 0.07 0.05 0.06 0.08 0.08 0.08 0.07 0.06 0.06 0.07 0.07 0.06 0.06 0.06 0.07 0.10 0.14 0.18 0.22 0.26 0.30 0.34 0.35 0.33 0.30 0.32 0.37 0.41 0.45 0.44 0.46 0.49
0.05 0.07 0.07 0.05 0.03 0.03 0.04 0.05 0.06 0.06 0.05 0.05 0.06 0.07 0.08 0.09 0.09 0.08 0.07 0.06 0.05 0.06 0.06 0.07 0.07 0.07 0.07 0.11 0.14 0.19 0.24 0.27 0.32 0.36 0.36 0.32 0.29 0.31 0.33 0.36 0.42 0.47 0.52 0.57
0.07 0.06 0.05 0.05 0.04 0.04 0.04 0.05 0.06 0.06 0.06 0.06 0.05 0.06 0.08 0.09 0.10 0.09 0.07 0.06 0.06 0.05 0.06 0.07 0.07 0.08 0.09 0.12 0.17 0.22 0.27 0.34 0.40 0.39 0.38 0.34 0.32 0.33 0.35 0.38 0.41 0.46 0.52 0.54
0.11 0.08 0.06 0.06 0.05 0.05 0.05 0.06 0.07 0.07 0.06 0.06 0.06 0.06 0.07 0.09 0.10 0.10 0.08 0.07 0.07 0.06 0.06 0.07 0.08 0.09 0.10 0.14 0.20 0.27 0.31 0.35 0.41 0.41 0.40 0.38 0.39 0.39 0.40 0.42 0.46 0.47 0.48 0.53
0.11 0.11 0.09 0.09 0.08 0.08 0.07 0.06 0.06 0.07 0.07 0.07 0.07 0.08 0.09 0.11 0.13 0.13 0.11 0.10 0.10 0.09 0.09 0.08 0.11 0.12 0.12 0.17 0.24 0.29 0.33 0.36 0.35 0.38 0.42 0.44 0.46 0.45 0.46 0.46 0.47 0.49 0.47 0.50
0.09 0.10 0.09 0.08 0.09 0.10 0.08 0.07 0.07 0.06 0.07 0.08 0.09 0.09 0.11 0.14 0.17 0.18 0.15 0.14 0.13 0.13 0.13 0.14 0.17 0.15 0.16 0.22 0.29 0.31 0.35 0.38 0.39 0.39 0.42 0.49 0.48 0.43 0.45 0.48 0.51 0.52 0.49 0.49
0.09 0.10 0.11 0.10 0.10 0.10 0.10 0.08 0.07 0.07 0.08 0.09 0.10 0.11 0.12 0.14 0.18 0.20 0.19 0.17 0.16 0.16 0.17 0.18 0.18 0.17 0.21 0.28 0.37 0.36 0.36 0.38 0.40 0.44 0.47 0.47 0.47 0.46 0.48 0.50 0.54 0.57 0.55 0.52
0.12 0.13 0.13 0.12 0.11 0.10 0.10 0.10 0.09 0.09 0.10 0.11 0.14 0.16 0.17 0.18 0.20 0.22 0.22 0.20 0.19 0.20 0.21 0.22 0.21 0.25 0.32 0.39 0.41 0.36 0.35 0.37 0.40 0.46 0.51 0.51 0.52 0.53 0.53 0.54 0.57 0.59 0.58 0.55
0.14 0.15 0.15 0.15 0.14 0.12 0.11 0.12 0.13 0.13 0.13 0.14 0.16 0.19 0.21 0.23 0.24 0.24 0.24 0.24 0.25 0.28 0.25 0.21 0.22 0.31 0.41 0.42 0.36 0.34 0.34 0.37 0.42 0.48 0.54 0.55 0.57 0.60 0.58 0.58 0.61 0.60 0.56 0.55
0.18 0.19 0.19 0.19 0.20 0.19 0.17 0.18 0.18 0.18 0.18 0.19 0.21 0.23 0.25 0.27 0.28 0.29 0.27 0.26 0.27 0.29 0.27 0.24 0.26 0.34 0.40 0.36 0.32 0.33 0.35 0.39 0.44 0.51 0.55 0.58 0.62 0.64 0.64 0.63 0.64 0.64 0.61 0.57
0.22 0.23 0.25 0.25 0.26 0.24 0.23 0.22 0.21 0.22 0.23 0.24 0.25 0.27 0.29 0.29 0.28 0.29 0.30 0.31 0.32 0.32 0.29 0.29 0.31 0.35 0.39 0.34 0.33 0.37 0.41 0.46 0.53 0.59 0.63 0.64 0.67 0.67 0.68 0.70 0.73 0.69 0.61 0.57
0.27 0.28 0.28 0.28 0.29 0.29 0.28 0.24 0.22 0.22 0.23 0.24 0.25 0.25 0.26 0.29 0.34 0.35 0.33 0.31 0.32 0.33 0.31 0.33 0.35 0.38 0.38 0.37 0.38 0.43 0.47 0.54 0.66 0.76 0.77 0.74 0.71 0.71 0.70 0.71 0.74 0.71 0.65 0.61
0.34 0.35 0.35 0.36 0.36 0.34 0.33 0.30 0.29 0.28 0.27 0.27 0.25 0.25 0.27 0.31 0.36 0.39 0.36 0.34 0.34 0.36 0.36 0.38 0.40 0.42 0.42 0.42 0.44 0.48 0.53 0.59 0.70 0.75 0.72 0.69 0.70 0.73 0.72 0.73 0.72 0.71 0.68 0.64
0.38 0.37 0.36 0.37 0.37 0.37 0.38 0.39 0.39 0.39 0.38 0.37 0.34 0.31 0.32 0.36 0.39 0.39 0.36 0.34 0.35 0.36 0.37 0.41 0.43 0.43 0.44 0.47 0.51 0.55 0.57 0.61 0.72 0.81 0.78 0.73 0.72 0.73 0.71 0.72 0.71 0.71 0.69 0.66